Tracking 28126 objects as of 2-Oct-2023
HD Live streaming from Space Station
objects crossing your sky now

STARLINK-4191

Track STARLINK-4191 now!
10-day predictions
STARLINK-4191 is classified as:


NORAD ID: 52860
Int'l Code: 2022-062AG
Perigee: 545.9 km
Apogee: 547.8 km
Inclination: 53.2 °
Period: 95.4 minutes
Semi major axis: 6917 km
RCS: Unknown
Launch date: June 17, 2022
Source: United States (US)
Launch site: AIR FORCE EASTERN TEST RANGE (AFETR)
Your satellite tracking list
Your tracking list is empty




NASA's NSSDC Master Catalog

Two Line Element Set (TLE):
1 52860U 22062AG  23274.81565130  .00002859  00000-0  19759-3 0  9998
2 52860  53.2173  58.9177 0001422  98.0421 262.0732 15.08855473 71583
Source of the keplerian elements: AFSPC